Location: Caltech
(34.1382°N, 118.1253°W)
Time: 23:49:33
(UTC-07:00)

Cosmos 1939 Rocket - Visible Passes

Search period start: 27 April 2015 00:00
Search period end: 07 May 2015 00:00
Orbit: 534 x 593 km, 97.6° (Epoch: 27 April)

Date Brightness Start Highest point End Pass type
(mag) Time Alt. Az. Time Alt. Az. Time Alt. Az.
27 Apr 2.8 21:23:48 63° E 21:23:52 63° ENE 21:27:47 10° N visible
28 Apr 2.8 21:23:43 62° E 21:23:50 63° ENE 21:27:45 10° N visible
29 Apr 2.8 21:23:37 62° E 21:23:48 63° ENE 21:27:42 10° N visible
30 Apr 2.8 21:23:31 61° E 21:23:46 63° ENE 21:27:40 10° N visible
01 May 2.8 21:23:25 60° ESE 21:23:44 63° ENE 21:27:37 10° N visible
02 May 2.8 21:23:18 58° ESE 21:23:41 63° ENE 21:27:34 10° N visible
03 May 2.8 21:23:11 57° ESE 21:23:38 62° ENE 21:27:30 10° N visible
04 May 2.8 21:23:04 56° ESE 21:23:35 62° ENE 21:27:26 10° N visible
05 May 2.8 21:22:57 54° ESE 21:23:31 62° ENE 21:27:23 10° N visible
06 May 2.8 21:22:50 53° ESE 21:23:28 62° ENE 21:27:18 10° N visible
